This is the latest recevied weather packets stored in our database for station/object AD8BV. If no packets are shown the sender has not sent any weather packets the latest 10 day(s).
| Time | Temp. | Humidity | Pressure | Rain* | Wind** | Luminosity | Snow |
|---|---|---|---|---|---|---|---|
| 1777841024 | 16.67° C | 49% | 1011.4 hPa | 0 mm | - | 232 W/m² | - |
| 1777840721 | 16.11° C | 50% | 1011.5 hPa | 0 mm | - | 198 W/m² | - |
| 1777840418 | 15.56° C | 50% | 1011.5 hPa | 0 mm | - | 208 W/m² | - |
| 1777840115 | 15.56° C | 50% | 1011.6 hPa | 0 mm | - | 154 W/m² | - |
| 1777839813 | 16.11° C | 50% | 1011.3 hPa | 0 mm | - | 138 W/m² | - |
| 1777839512 | 16.67° C | 49% | 1011.3 hPa | 0 mm | - | 221 W/m² | - |
| 1777839208 | 16.11° C | 48% | 1011.4 hPa | 0 mm | - | 227 W/m² | - |
| 1777838906 | 16.67° C | 46% | 1011.6 hPa | 0 mm | - | 140 W/m² | - |
| 1777838601 | 17.78° C | 45% | 1011.4 hPa | 0 mm | - | 132 W/m² | - |
| 1777838299 | 17.78° C | 45% | 1011.7 hPa | 0 mm | - | 629 W/m² | - |
| 1777837995 | 16.11° C | 49% | 1011.4 hPa | 0 mm | - | 672 W/m² | - |
| 1777837693 | 16.67° C | 47% | 1011.5 hPa | 0 mm | - | 140 W/m² | - |
| 1777837389 | 17.78° C | 47% | 1011.7 hPa | 0 mm | - | 182 W/m² | - |
| 1777837085 | 17.22° C | 47% | 1011.7 hPa | 0 mm | - | 641 W/m² | - |
| 1777836781 | 18.33° C | 47% | 1011.8 hPa | 0 mm | - | 163 W/m² | - |
| 1777836477 | 17.78° C | 51% | 1011.7 hPa | 0 mm | - | 452 W/m² | - |
| 1777836172 | 17.78° C | 49% | 1011.9 hPa | 0 mm | - | 197 W/m² | - |
| 1777835869 | 17.78° C | 49% | 1011.9 hPa | 0 mm | - | 672 W/m² | - |
| 1777835566 | 17.78° C | 44% | 1012.2 hPa | 0 mm | - | 620 W/m² | - |
| 1777835263 | 17.78° C | 44% | 1012.4 hPa | 0 mm | - | 592 W/m² | - |
| 1777834960 | 17.22° C | 48% | 1012.5 hPa | 0 mm | - | 637 W/m² | - |
| 1777834657 | 17.22° C | 47% | 1012.1 hPa | 0 mm | - | 643 W/m² | - |
| 1777834352 | 17.22° C | 45% | 1012.5 hPa | 0 mm | - | 663 W/m² | - |
| 1777834047 | 17.78° C | 46% | 1012.5 hPa | 0 mm | - | 647 W/m² | - |
| 1777833744 | 17.22° C | 45% | 1012.3 hPa | 0 mm | - | 643 W/m² | - |
* Rain latest hour (hover to see other rain measurements)
** Current wind speed in m/s (hover to see current wind gust speed)